Location: Aldenham
(51.6667°N, 0.3500°W)
Time: 00:14:51
(UTC+00:00)

Altair - Pass Details

Date: 17 February 2026
Orbit: 1502 x 1682 km, 47.2° (Epoch: 9 March)

Event Time Altitude Azimuth Distance (km) Brightness Sun altitude
Rises 11:37:12 0° 287° (WNW) 4,744 9.8 25.9°
Reaches altitude 10° 11:40:51 10° 275° (W) 3,785 9.5 26.0°
Maximum altitude 11:48:18 26° 224° (SW) 2,762 9.6 26.2°
Drops below altitude 10° 11:55:57 10° 173° (S) 3,882 11.5 26.3°
Sets 11:59:47 0° 161° (SSE) 4,888 11.3 26.4°
